Location: Mapua
(41.2500°S, 173.1000°E)
Time: 13:08:35
(UTC+12:00)

Hubble Space Telescope - Visible Passes

Search period start: 01 July 2022 00:00
Search period end: 11 July 2022 00:00
Orbit: 532 x 536 km, 28.5° (Epoch: 30 June)

Date Brightness Start Highest point End Pass type
(mag) Time Alt. Az. Time Alt. Az. Time Alt. Az.
01 Jul 3.1 05:49:21 13° NNW 05:50:00 13° N 05:52:04 10° NNE visible
02 Jul 3.2 05:38:09 13° N 05:38:09 13° N 05:39:51 10° NNE visible
03 Jul 3.5 05:26:55 11° N 05:26:55 11° N 05:27:33 10° NNE visible
